Flag for Germany Weather past 2 weeks in Melsungen, Hesse, Germany

Now
30 °F

Fog.


Feels Like: 30 °F
Forecast: 38 / 48 °F
Wind: 1 mph from West

Location: Fritzlar


UV Index: 3 (Moderate)

Visibility: 25 mi


Pressure: 30.37 "Hg

Humidity: 92%

Dew point: 28 °F

Location of MelsungenLocation

Historic Weather in Melsungen

°F

Melsungen temperature yesterday

Maximum temperature yesterday: 55 °F (at 6:00 PM)
Minimum temperature yesterday: 31 °F (at 7:00 AM)
Average temperature yesterday: 43 °F

Past Weeks' High & Low Weather Summary

 TemperatureHumidityPressure
High69 °F (Apr 3, 2:00 PM)98% (Apr 6, 9:00 AM)30.47 "Hg (Apr 6, 9:00 AM)
Low31 °F (Apr 16, 7:00 AM)37% (Apr 2, 3:00 PM)29.64 "Hg (Apr 3, 6:00 PM)
Average50 °F73%30.04 "Hg
* Reported Apr 2 4:00 AM — Apr 17 4:00 AM, Melsungen, Weather by CustomWeather, © 2014

Note: Actual official high and low records may vary slightly from our data, if they occured in-between our weather recording intervals... More about our weather records

Advertising

Historic Weather Conditions — Data for Previous 24 hours

 ConditionsComfort  
Time TempWeatherWind HumidityBarometerVisibility
4:00 AM
Apr 17
31 °FPassing clouds.2 mph90%30.39 "Hg25 mi
3:00 AM31 °FPassing clouds.1 mph90%30.40 "Hg25 mi
2:00 AM34 °FPassing clouds.2 mph85%30.42 "Hg25 mi
1:00 AM36 °FPassing clouds.2 mph81%30.42 "Hg25 mi
12:00 AM37 °FPassing clouds.2 mph82%30.42 "Hg25 mi
11:00 PM
Apr 16
36 °FPassing clouds.1 mph86%30.42 "Hg25 mi
10:00 PM40 °FPassing clouds.No wind80%30.41 "Hg25 mi
9:00 PM42 °FPassing clouds.2 mph75%30.41 "Hg28 mi
8:00 PM49 °FPassing clouds.2 mph55%30.39 "Hg28 mi
7:00 PM53 °FPassing clouds.2 mph46%30.39 "Hg28 mi
6:00 PM55 °FPassing clouds.N/A39%30.39 "Hg28 mi
5:00 PM53 °FScattered clouds.2 mph43%30.41 "Hg28 mi
4:00 PM54 °FScattered clouds.2 mph47%30.41 "Hg28 mi
3:00 PM53 °FScattered clouds.2 mph46%30.42 "Hg25 mi
2:00 PM53 °FScattered clouds.N/A51%30.43 "Hg25 mi
1:00 PM51 °FScattered clouds.2 mph52%30.44 "Hg22 mi
12:00 PM49 °FPassing clouds.3 mph55%30.46 "Hg16 mi
11:00 AM46 °FPassing clouds.2 mph64%30.47 "Hg14 mi
10:00 AM42 °FPassing clouds.2 mph70%30.47 "Hg12 mi
9:00 AM38 °FPassing clouds.N/A84%30.47 "Hg12 mi
8:00 AM33 °FPassing clouds.2 mph92%30.47 "Hg12 mi
7:00 AM31 °FPassing clouds.2 mph91%30.46 "Hg16 mi
6:00 AM32 °FClear.2 mph90%30.44 "Hg19 mi
Weather by CustomWeather, © 2014

See weather overview